[[{"header":{"parameterUnit":"m.s-1","parameterCategory":1,"la1":30.2991,"la2":30.254,"lo1":-89.0895,"lo2":-89.0444,"dy":0.0017,"dx":0.0017,"nx":28,"ny":28,"refTime":"2024-10-18T09:00:00:Z","depth":0,"parameterNumber":2,"parameterNumberName":"U-component_of_WINDS"},"data":[0,0,0,0,0,0,0,0,0,0,0,0,0,0,0,0,0,0,0,0,0,0,0,0,0,0,0,0,0,0,0,0,0,0,0,0,0,0,0,0,0,0,0,0,0,0,0,0,0,0,0,0,0,0,0,0,0,0,-6.0494,-6.0495,0,-6.0593,-6.0595,-6.0596,-6.0485,-6.048,-6.0476,-6.0472,-6.0576,-6.0582,-6.0589,0,0,0,0,0,0,0,0,0,0,0,0,0,-6.021,-6.0215,-6.0494,-6.0495,-6.0496,-6.0593,-6.0595,-6.0596,-6.0485,-6.048,-6.0475,-6.047,-6.0573,-6.0581,-6.0589,0,0,0,0,0,0,0,0,0,0,0,0,0,-6.0324,-6.0217,-6.0494,-6.0453,-6.045,-6.0593,-6.0595,-6.0596,-6.0486,-6.048,-6.0474,-6.0468,-6.0571,-6.0581,-6.059,-6.0779,0,0,-6.0621,-6.0625,0,0,0,0,0,0,0,0,-6.0317,-6.0334,-6.0458,-6.0456,-6.0453,-6.052,-6.0532,-6.0658,-6.0488,-6.0473,-6.0472,-6.0465,-6.0562,-6.0573,-6.0605,-6.0784,-6.0788,-6.0622,-6.0628,-6.0632,-6.0635,0,0,0,0,0,0,0,-6.031,-6.0329,-6.0533,-6.046,-6.0457,-6.043,-6.0439,-6.0555,-6.0552,-6.0474,-6.0466,-6.0479,-6.056,-6.0596,-6.0607,-6.079,-6.0622,-6.0631,-6.0637,-6.0641,-6.1129,-6.1136,0,0,0,0,0,0,-6.0306,-6.0323,-6.053,-6.0536,-6.0368,-6.044,-6.0451,-6.0505,-6.055,-6.0551,-6.0484,-6.0473,-6.0582,-6.0595,-6.061,-6.0835,-6.0632,-6.0642,-6.0647,-6.1122,-6.1131,-6.1138,0,0,0,0,0,0,-6.03,-6.0326,-6.0526,-6.0428,-6.0451,-6.0452,-6.0514,-6.051,-6.0546,-6.0558,-6.0557,-6.0522,-6.0577,-6.0596,-6.0738,-6.0837,-6.0646,-6.0655,-6.1114,-6.1125,-6.1134,-6.1285,0,0,0,0,0,0,-6.0293,-6.0324,-6.0395,-6.043,-6.0457,-6.0652,-6.052,-6.0517,-6.0564,-6.055,-6.0593,-6.0594,-6.0574,-6.0724,-6.0748,-6.0847,-6.0663,-6.1105,-6.1119,-6.1131,-6.1271,-6.13,-6.1324,0,0,0,0,0,-6.0283,-6.0434,-6.04,-6.0425,-6.0546,-6.0658,-6.0673,-6.0647,-6.0572,-6.0644,-6.0652,-6.0593,-6.0822,-6.0739,-6.0765,-6.0869,-6.1099,-6.1115,-6.113,-6.126,-6.1294,-6.1323,0,0,0,0,0,0,-6.0411,-6.0438,-6.04,-6.0567,-6.0611,-6.0639,-6.0729,-6.0684,-6.075,-6.0735,-6.07,-6.071,-6.0861,-6.0879,-6.0786,-6.1055,-6.0948,-6.097,-6.1038,-6.107,-6.1096,-6.1089,-6.0671,0,0,0,0,0,-6.0458,-6.0547,-6.0566,-6.0711,-6.0735,-6.0729,-6.0776,-6.0752,-6.0797,-6.0815,-6.0833,-6.0879,-6.0962,-6.1017,-6.1093,-6.1273,-6.1282,-6.1358,-6.1384,-6.1405,-6.1425,-6.1523,-6.1557,-6.1189,-6.1189,-6.1189,0,0,-6.0558,-6.0583,-6.0641,-6.0737,-6.0769,-6.0862,-6.0745,-6.0848,-6.0917,-6.0831,-6.0966,-6.0981,-6.103,-6.1193,-6.1265,-6.1212,-6.1528,-6.1425,-6.1442,-6.145,-6.1542,-6.1577,-6.1608,-6.12,-6.1198,-6.1196,0,0,-6.0786,-6.0814,-6.0939,-6.0973,-6.1022,-6.1017,-6.1047,-6.1083,-6.1089,-6.1225,-6.1162,-6.1244,-6.1386,-6.1424,-6.1462,-6.1706,-6.1655,-6.1732,-6.1869,-6.1965,-6.1994,-6.2019,-6.2108,-6.214,-6.1751,-6.1752,-6.1752,0,-6.0904,-6.1041,-6.1009,-6.1117,-6.1162,-6.1087,-6.1214,-6.1249,-6.1321,-6.1354,-6.1293,-6.1471,-6.1498,-6.1669,-6.1729,-6.1762,-6.1796,-6.1728,-6.1992,-6.2018,-6.2041,-6.2125,-6.2158,-6.1761,-6.176,-6.1759,-6.1758,0,-6.1184,-6.128,-6.1375,-6.1447,-6.1502,-6.1619,-6.1605,-6.1665,-6.1636,-6.1637,-6.1777,-6.1807,-6.1889,-6.1928,-6.19,-6.2096,-6.2061,-6.1997,-6.189,-6.2086,-6.2164,-6.2196,-6.1774,-6.1771,-6.1768,-6.1766,0,0,-6.1496,-6.1549,-6.1584,-6.1616,-6.1665,-6.174,-6.1854,-6.1933,-6.1986,-6.2038,-6.2134,-6.2257,-6.2198,-6.2241,-6.2217,-6.2302,-6.2495,-6.2227,-6.2228,-6.2277,-6.2714,-6.2763,-6.2801,-6.2461,-6.2467,-6.2472,-6.2711,0,-6.1727,-6.1924,-6.1899,-6.2089,-6.2178,-6.2109,-6.2208,-6.225,-6.2255,-6.2332,-6.2336,-6.2425,-6.234,-6.2366,-6.2446,-6.2455,-6.2583,-6.2437,-6.2551,-6.2556,-6.2542,-6.2842,-6.2894,-6.3117,-6.2741,-6.2746,-6.275,0,-6.2023,-6.2086,-6.2285,-6.2321,-6.2358,-6.2447,-6.2519,-6.2593,-6.2639,-6.2637,-6.2686,-6.2647,-6.2763,-6.2652,-6.2812,-6.2713,-6.2758,-6.277,-6.2778,-6.2788,-6.2666,-6.2862,-6.3188,-6.3222,-6.2798,-6.2794,-6.279,0,-6.2233,-6.2367,-6.2504,-6.2533,-6.2579,-6.2644,-6.2666,-6.2705,-6.2755,-6.2818,-6.2851,-6.2926,-6.2968,-6.3028,-6.3012,-6.2933,-6.3176,-6.3063,-6.3178,-6.3179,-6.3233,-6.323,-6.3573,-6.326,-6.326,-6.3259,-6.3258,0,-6.2494,-6.2619,-6.2599,-6.2683,-6.2821,-6.2791,-6.2929,-6.2942,-6.2978,-6.3064,-6.3009,-6.3091,-6.3064,-6.3145,-6.3133,-6.3267,-6.3286,-6.3289,-6.3284,-6.3295,-6.3295,-6.3324,-6.3309,-6.3268,-6.3266,-6.3264,-6.3263,0,-6.2752,-6.2744,-6.2888,-6.292,-6.2931,-6.3031,-6.3058,-6.3138,-6.3138,-6.3248,-6.3272,-6.3273,-6.3366,-6.3355,-6.3459,-6.3451,-6.3619,-6.3595,-6.3603,-6.3598,-6.3714,-6.3704,-6.4089,-6.4139,-6.3793,-6.3796,-6.3799,0,-6.292,-6.3014,-6.3056,-6.311,-6.3137,-6.3224,-6.3275,-6.3249,-6.3304,-6.3364,-6.3437,-6.3525,-6.3594,-6.3745,-6.3756,-6.3835,-6.3814,-6.3943,-6.3825,-6.3833,-6.3818,-6.3813,-6.3823,-6.3967,-6.3971,-6.3974,-6.3977,0,-6.322,-6.3211,-6.3286,-6.3361,-6.3424,-6.3481,-6.3533,-6.358,-6.3559,-6.3625,-6.3719,-6.3772,-6.3878,-6.3967,-6.4042,-6.4065,-6.4019,-6.4013,-6.4044,-6.4057,-6.4059,-6.4061,-6.3668,-6.4005,-6.4002,-6.4,-6.3999,-6.3997,-6.3439,-6.352,-6.3562,-6.3648,-6.3685,-6.3735,-6.3812,-6.3822,-6.39,-6.3984,-6.3964,-6.4071,-6.4115,-6.4211,-6.4242,-6.4326,-6.4279,-6.4324,-6.4335,-6.4347,-6.4362,-6.4044,-6.434,-6.4339,-6.4338,-6.4337,-6.4337,0,-6.3736,-6.376,-6.384,-6.3915,-6.3983,-6.3932,-6.3987,-6.4048,-6.4143,-6.4188,-6.4257,-6.4366,-6.4451,-6.4469,-6.4551,-6.4615,-6.4596,-6.4637,-6.4633,-6.464,-6.4398,-6.4364,-6.4652,-6.4652,-6.4652,-6.4652,-6.4651,-6.4651,-6.39,-6.4035,-6.4032,-6.4185,-6.4207,-6.4312,-6.4348,-6.4394,-6.443,-6.4554,-6.4625,-6.4636,-6.467,-6.4755,-6.4831,-6.4834,-6.4868,-6.4919,-6.4914,-6.4688,-6.4656,-6.4627,-6.4594,-6.4926,-6.4926,-6.5148,-6.515,-6.5152]},{"header":{"parameterUnit":"m.s-1","parameterCategory":1,"la1":30.2991,"la2":30.254,"lo1":-89.0895,"lo2":-89.0444,"dy":0.0017,"dx":0.0017,"nx":28,"ny":28,"refTime":"2024-10-18T09:00:00:Z","depth":0,"parameterNumber":3,"parameterNumberName":"V-component_of_WINDS"},"data":[0,0,0,0,0,0,0,0,0,0,0,0,0,0,0,0,0,0,0,0,0,0,0,0,0,0,0,0,0,0,0,0,0,0,0,0,0,0,0,0,0,0,0,0,0,0,0,0,0,0,0,0,0,0,0,0,0,0,-2.4323,-2.4322,0,-2.427,-2.427,-2.4269,-2.4195,-2.4194,-2.4193,-2.4191,-2.4139,-2.4139,-2.4139,0,0,0,0,0,0,0,0,0,0,0,0,0,-2.436,-2.436,-2.4323,-2.4322,-2.4321,-2.427,-2.427,-2.4269,-2.4195,-2.4194,-2.4192,-2.4191,-2.4139,-2.4139,-2.4139,0,0,0,0,0,0,0,0,0,0,0,0,0,-2.4329,-2.436,-2.4323,-2.4279,-2.4274,-2.427,-2.4269,-2.4269,-2.4196,-2.4194,-2.4192,-2.419,-2.414,-2.4139,-2.4139,-2.4175,0,0,-2.4138,-2.4138,0,0,0,0,0,0,0,0,-2.4331,-2.4328,-2.4286,-2.4282,-2.4277,-2.4237,-2.4263,-2.4237,-2.4196,-2.4226,-2.4191,-2.4189,-2.4174,-2.417,-2.4165,-2.4172,-2.417,-2.4138,-2.4138,-2.4138,-2.4138,0,0,0,0,0,0,0,-2.4334,-2.433,-2.4302,-2.4285,-2.428,-2.4262,-2.4255,-2.4258,-2.4211,-2.4223,-2.4217,-2.4212,-2.4171,-2.4165,-2.4163,-2.4169,-2.4138,-2.4138,-2.4137,-2.4137,-2.4203,-2.4205,0,0,0,0,0,0,-2.4342,-2.4332,-2.4304,-2.43,-2.43,-2.4262,-2.4255,-2.4252,-2.4211,-2.4203,-2.4214,-2.4209,-2.4167,-2.4163,-2.4161,-2.4199,-2.4138,-2.4137,-2.4137,-2.4201,-2.4203,-2.4205,0,0,0,0,0,0,-2.4343,-2.434,-2.4306,-2.4315,-2.4309,-2.4264,-2.4261,-2.4252,-2.4246,-2.4204,-2.4195,-2.4217,-2.4165,-2.4161,-2.4172,-2.4197,-2.4137,-2.4137,-2.4199,-2.4202,-2.4204,-2.4277,0,0,0,0,0,0,-2.4345,-2.4341,-2.4354,-2.4316,-2.4309,-2.4317,-2.4262,-2.4252,-2.4246,-2.4239,-2.4204,-2.4197,-2.4163,-2.4172,-2.4171,-2.4195,-2.4137,-2.4196,-2.42,-2.4203,-2.4273,-2.4282,-2.4291,0,0,0,0,0,-2.4346,-2.4378,-2.4355,-2.4352,-2.4324,-2.4319,-2.4315,-2.4275,-2.4248,-2.4261,-2.4233,-2.4198,-2.4194,-2.4174,-2.4172,-2.4196,-2.4194,-2.4199,-2.4203,-2.4268,-2.4281,-2.4291,0,0,0,0,0,0,-2.4421,-2.4372,-2.4346,-2.4366,-2.4347,-2.4306,-2.4321,-2.429,-2.4279,-2.4273,-2.4224,-2.4217,-2.4233,-2.4216,-2.4194,-2.4228,-2.4189,-2.4193,-2.4239,-2.425,-2.4259,-2.4263,-2.4136,0,0,0,0,0,-2.444,-2.4439,-2.4396,-2.4418,-2.441,-2.4367,-2.4364,-2.4335,-2.4313,-2.4305,-2.4278,-2.4259,-2.4253,-2.4251,-2.4243,-2.427,-2.4261,-2.4285,-2.4294,-2.4302,-2.4306,-2.4318,-2.4328,-2.4219,-2.4219,-2.4219,0,0,-2.4479,-2.4452,-2.4454,-2.4432,-2.4414,-2.4415,-2.4361,-2.4364,-2.4364,-2.4306,-2.4313,-2.4293,-2.4269,-2.4287,-2.4293,-2.4273,-2.4334,-2.4308,-2.4314,-2.4314,-2.4323,-2.4334,-2.4343,-2.4222,-2.4222,-2.4221,0,0,-2.455,-2.4529,-2.4545,-2.4527,-2.45,-2.4472,-2.4475,-2.4439,-2.4423,-2.443,-2.4386,-2.4385,-2.4377,-2.436,-2.4351,-2.4415,-2.4382,-2.4414,-2.4462,-2.4474,-2.4482,-2.449,-2.4512,-2.4521,-2.4418,-2.4419,-2.4419,0,-2.4602,-2.46,-2.4557,-2.4562,-2.4554,-2.4499,-2.4514,-2.45,-2.4472,-2.4468,-2.4444,-2.4432,-2.4411,-2.4425,-2.444,-2.4435,-2.4437,-2.4418,-2.4485,-2.4492,-2.4498,-2.4518,-2.4527,-2.4423,-2.4422,-2.4422,-2.4421,0,-2.4665,-2.4665,-2.4681,-2.4654,-2.4647,-2.4658,-2.4616,-2.4614,-2.4585,-2.4559,-2.4567,-2.454,-2.4526,-2.4527,-2.45,-2.4536,-2.4524,-2.4494,-2.4453,-2.4513,-2.4531,-2.4539,-2.4428,-2.4427,-2.4426,-2.4425,0,0,-2.4783,-2.4731,-2.4737,-2.4724,-2.469,-2.4689,-2.4697,-2.4682,-2.4681,-2.4664,-2.4669,-2.4662,-2.4633,-2.4623,-2.4593,-2.4604,-2.4655,-2.4572,-2.457,-2.4588,-2.4693,-2.4716,-2.4726,-2.4633,-2.4634,-2.4635,-2.4695,0,-2.4847,-2.4856,-2.4817,-2.4837,-2.4836,-2.4784,-2.4791,-2.4771,-2.4746,-2.4742,-2.4715,-2.4711,-2.4674,-2.4667,-2.4675,-2.4647,-2.4676,-2.4642,-2.4637,-2.4637,-2.4645,-2.4735,-2.476,-2.4817,-2.4702,-2.4703,-2.4704,0,-2.4923,-2.4908,-2.4928,-2.4892,-2.489,-2.4897,-2.4879,-2.4876,-2.4852,-2.4833,-2.4821,-2.4786,-2.4791,-2.4752,-2.4758,-2.4736,-2.4732,-2.4718,-2.4719,-2.4717,-2.4674,-2.4736,-2.4835,-2.4844,-2.4715,-2.4714,-2.4713,0,-2.5006,-2.4991,-2.5001,-2.4992,-2.495,-2.4955,-2.4938,-2.4912,-2.4905,-2.489,-2.4885,-2.4872,-2.4864,-2.4854,-2.4816,-2.4792,-2.4826,-2.4785,-2.4811,-2.4812,-2.4821,-2.4821,-2.4921,-2.4819,-2.4818,-2.4818,-2.4818,0,-2.5081,-2.5095,-2.5038,-2.5044,-2.5058,-2.5012,-2.5027,-2.5005,-2.4982,-2.4983,-2.4937,-2.4939,-2.4889,-2.4885,-2.4856,-2.4864,-2.4862,-2.4847,-2.4839,-2.4851,-2.4852,-2.4847,-2.4842,-2.482,-2.482,-2.482,-2.4819,0,-2.5176,-2.5138,-2.5145,-2.5105,-2.5095,-2.5107,-2.5072,-2.5076,-2.5048,-2.505,-2.5047,-2.5004,-2.4997,-2.4958,-2.4943,-2.4923,-2.4942,-2.4926,-2.495,-2.4945,-2.4973,-2.4971,-2.5073,-2.5084,-2.4975,-2.4976,-2.4977,0,-2.5227,-2.5237,-2.5197,-2.5193,-2.5178,-2.5174,-2.5167,-2.5122,-2.5116,-2.5088,-2.5096,-2.5085,-2.5074,-2.5065,-2.5032,-2.502,-2.5003,-2.5039,-2.5001,-2.5012,-2.5003,-2.5003,-2.5003,-2.5048,-2.5049,-2.505,-2.5051,0,-2.5321,-2.5301,-2.5292,-2.5277,-2.5269,-2.5255,-2.5238,-2.5238,-2.5188,-2.5184,-2.5176,-2.5167,-2.515,-2.514,-2.5121,-2.5104,-2.5069,-2.5064,-2.5069,-2.5081,-2.5095,-2.5087,-2.4972,-2.5062,-2.506,-2.506,-2.5059,-2.5059,-2.5395,-2.5401,-2.5373,-2.5364,-2.5346,-2.5331,-2.5333,-2.5305,-2.5297,-2.528,-2.5254,-2.5249,-2.5223,-2.5195,-2.518,-2.5175,-2.5156,-2.5164,-2.5166,-2.5168,-2.5174,-2.5095,-2.5172,-2.5172,-2.5171,-2.5171,-2.5171,0,-2.5486,-2.5465,-2.5458,-2.5435,-2.5428,-2.5395,-2.5374,-2.5371,-2.5367,-2.5346,-2.5336,-2.5326,-2.5315,-2.5282,-2.5268,-2.5271,-2.5254,-2.5268,-2.5268,-2.5264,-2.5193,-2.519,-2.5282,-2.5282,-2.5282,-2.5282,-2.5282,-2.5282,-2.5532,-2.554,-2.5517,-2.5515,-2.5494,-2.5489,-2.548,-2.5466,-2.5448,-2.5439,-2.543,-2.5408,-2.5382,-2.5365,-2.5354,-2.5344,-2.5341,-2.536,-2.5345,-2.528,-2.5269,-2.5259,-2.5255,-2.536,-2.536,-2.5416,-2.5417,-2.5417]}]]